DW3637 Weather Reports


Display with metric or nautical units.
time (UTC)temp
F
wind
direction
speed
MPH
gust
MPH
rain 1hr
in
rain 24hr
in
rain mn
in
humidity
%
barometer
mb
20260901133023 66 0.0 3.0 0.15 0.72 0.72 98 1015.6
20260901132022 66 0.0 2.0 0.26 0.72 0.72 98 1015.8
20260901131109 66 0.0 2.0 0.26 0.71 0.71 98 1015.7
20260901130019 66 0.0 0.0 0.17 0.61 0.61 98 1016.1
20260901125021 66 0.0 1.0 0.19 0.61 0.61 98 1015.7
20260901124039 66 0.0 2.0 0.21 0.60 0.60 98 1015.6
20260901123017 66 0.0 3.0 0.23 0.57 0.57 98 1015.8
20260901122021 66 0.0 1.0 0.18 0.46 0.46 98 1015.9
20260901121037 66 0.0 0.0 0.22 0.45 0.45 98 1015.4
20260901120017 66 0.0 0.0 0.34 0.44 0.44 97 1015.4
20260901115017 66 0.0 1.0 0.34 0.42 0.42 97 1015.4
20260901114019 66 0.0 2.0 0.32 0.39 0.39 97 1015.7
20260901113017 66 0.0 0.0 0.28 0.34 0.34 96 1015.9
20260901112018 67 0.0 1.0 0.22 0.28 0.28 96 1015.9
20260901111017 66 0.0 1.0 0.17 0.23 0.23 96 1015.9
20260901110017 66 0.0 0.0 0.04 0.11 0.10 96 1015.8
20260901105017 66 0.0 0.0 0.02 0.09 0.08 96 1015.6
20260901104037 67 0.0 0.0 0.01 0.08 0.07 96 1015.5
20260901103016 67 0.0 0.0 0.00 0.07 0.06 96 1015.5
20260901102018 67 0.0 0.0 0.01 0.07 0.06 96 1015.5
20260901101017 67 0.0 1.0 0.02 0.07 0.06 95 1015.3
20260901100017 67 0.0 3.0 0.02 0.07 0.06 95 1015.2
20260901095017 67 0.0 0.0 0.03 0.07 0.06 95 1015.4
20260901094037 67 0.0 0.0 0.04 0.07 0.06 95 1015.5
20260901093017 67 0.0 0.0 0.06 0.07 0.06 95 1015.6
20260901092019 67 0.0 0.0 0.05 0.06 0.05 95 1015.7
20260901091017 67 0.0 0.0 0.04 0.05 0.04 94 1015.7
20260901090017 67 0.0 0.0 0.04 0.05 0.04 94 1015.8
20260901085017 67 0.0 0.0 0.03 0.04 0.03 93 1015.7
20260901084028 67 0.0 0.0 0.02 0.03 0.02 93 1015.8
20260901083026 68 0.0 0.0 0.00 0.01 0.00 93 1015.9
20260901082026 68 0.0 0.0 0.00 0.01 0.00 92 1015.9
20260901081032 68 0.0 0.0 0.00 0.01 0.00 92 1015.9
20260901080038 68 0.0 0.0 0.00 0.01 0.00 92 1015.8
20260901075031 68 0.0 0.0 0.00 0.01 0.00 91 1016.0
20260901074037 69 0.0 0.0 0.00 0.01 0.00 91 1016.1
20260901073049 69 0.0 0.0 0.00 0.01 0.00 91 1016.3
20260901072028 69 0.0 0.0 0.00 0.01 0.00 92 1016.3
20260901071038 68 0.0 0.0 0.00 0.01 0.00 92 1016.4
20260901070106 68 0.0 0.0 0.00 0.01 0.00 92 1016.5
20260901065114 68 0.0 0.0 0.00 0.01 0.00 92 1016.6
20260901064033 68 0.0 1.0 0.00 0.01 0.00 92 1016.6
20260901063035 68 0.0 0.0 0.00 0.01 0.00 92 1016.6
20260901062031 68 0.0 0.0 0.00 0.01 0.00 92 1016.6
20260901061042 68 0.0 0.0 0.00 0.01 0.00 92 1016.6
20260901060023 68 0.0 0.0 0.00 0.01 0.00 92 1016.5
20260901055044 68 0.0 0.0 0.00 0.01 0.00 91 1016.7
20260901054042 69 0.0 0.0 0.00 0.01 0.00 90 1017.0
20260901053026 69 0.0 1.0 0.00 0.01 0.00 89 1017.0
20260901052034 70 0.0 2.0 0.00 0.01 0.00 85 1017.2
20260901051017 70 0.0 4.0 0.00 0.01 0.00 84 1017.2
20260901050105 70 0.0 3.0 0.00 0.01 0.00 83 1017.1
20260901045038 70 0.0 1.0 0.00 0.01 0.00 82 1017.0
20260901044032 70 0.0 1.0 0.00 0.01 0.00 81 1017.0
20260901043034 70 0.0 2.0 0.00 0.01 0.00 81 1017.0
20260901042031 70 225 1.0 4.0 0.00 0.01 0.00 80 1017.1
20260901041022 70 0.0 1.0 0.00 0.01 0.00 79 1017.0
20260901040041 70 0.0 2.0 0.00 0.01 0.01 79 1017.2
20260901035048 70 0.0 2.0 0.00 0.01 0.01 79 1017.2
20260901034028 70 0.0 0.0 0.00 0.01 0.01 78 1017.3
20260901033021 71 0.0 1.0 0.00 0.01 0.01 77 1017.2
20260901032020 71 0.0 0.0 0.00 0.01 0.01 77 1017.3
20260901031017 71 0.0 1.0 0.00 0.01 0.01 77 1017.3
20260901030017 71 0.0 1.0 0.00 0.01 0.01 76 1017.4
20260901025037 71 0.0 4.0 0.00 0.01 0.01 76 1017.3
20260901024021 71 0.0 4.0 0.00 0.01 0.01 77 1017.4
20260901023024 71 225 1.0 5.0 0.00 0.01 0.01 77 1017.3
20260901022029 72 0.0 1.0 0.00 0.01 0.01 77 1017.2
20260901021017 72 0.0 2.0 0.00 0.01 0.01 77 1017.2
20260901020016 72 0.0 2.0 0.00 0.01 0.01 77 1017.2
20260901015018 72 225 1.0 5.0 0.00 0.01 0.01 76 1017.1
20260901014037 72 0.0 0.0 0.00 0.01 0.01 74 1017.3
20260901013016 73 0.0 1.0 0.00 0.01 0.01 72 1017.3
20260901012016 73 0.0 0.0 0.00 0.01 0.01 72 1017.3
20260901011016 73 0.0 1.0 0.00 0.01 0.01 71 1017.4
20260901010018 73 0.0 1.0 0.00 0.01 0.01 69 1017.4
20260901005016 74 0.0 3.0 0.00 0.04 0.01 68 1017.3
20260901004017 74 248 1.0 5.0 0.00 0.14 0.01 67 1017.4
20260901003018 74 0.0 3.0 0.00 0.16 0.01 67 1017.3
20260901002021 74 0.0 1.0 0.00 0.16 0.01 67 1017.2
20260901001117 74 225 1.0 5.0 0.00 0.16 0.01 66 1017.1
20260901000049 74 0.0 2.0 0.00 0.16 0.01 67 1017.0
20260831235017 74 0.0 4.0 0.00 0.16 0.01 68 1017.0
20260831234019 74 0.0 1.0 0.00 0.16 0.01 70 1017.0
20260831233020 75 293 1.0 6.0 0.00 0.16 0.01 69 1017.1
20260831232018 75 0.0 4.0 0.00 0.16 0.01 70 1017.2
20260831231023 75 0.0 1.0 0.00 0.16 0.01 70 1017.3
20260831230018 75 0.0 0.0 0.00 0.16 0.01 70 1017.4
20260831225037 75 0.0 0.0 0.00 0.16 0.01 70 1017.3
20260831224037 75 0.0 0.0 0.00 0.16 0.01 69 1017.4
20260831223018 76 0.0 1.0 0.00 0.16 0.01 68 1017.4
20260831222018 76 0.0 0.0 0.00 0.16 0.01 66 1017.5
20260831221025 76 0.0 0.0 0.00 0.16 0.01 67 1017.5
20260831220016 76 0.0 0.0 0.00 0.16 0.01 65 1017.4
20260831215016 76 0.0 0.0 0.00 0.16 0.01 65 1017.5
20260831214017 76 0.0 1.0 0.00 0.16 0.01 65 1017.5
20260831213038 77 0.0 0.0 0.00 0.16 0.01 64 1017.5
20260831212021 77 0.0 1.0 0.00 0.16 0.01 62 1017.4
20260831211021 77 0.0 0.0 0.00 0.16 0.01 62 1017.4
20260831210016 77 0.0 1.0 0.00 0.16 0.01 61 1017.3
20260831205034 77 0.0 1.0 0.00 0.16 0.01 60 1017.5
20260831204017 78 0.0 2.0 0.00 0.16 0.01 60 1017.5
20260831203016 78 293 1.0 5.0 0.00 0.16 0.01 59 1017.5
20260831202024 78 0.0 1.0 0.00 0.16 0.01 58 1017.5
20260831201038 78 0.0 2.0 0.00 0.16 0.01 58 1017.7
20260831200016 78 0.0 4.0 0.00 0.16 0.01 58 1017.8
20260831195039 78 0.0 4.0 0.00 0.16 0.01 59 1017.9
20260831194017 77 0.0 1.0 0.00 0.16 0.01 60 1018.0
20260831193016 77 0.0 2.0 0.00 0.16 0.01 58 1018.0
20260831192036 78 0.0 2.0 0.00 0.16 0.01 59 1017.9
20260831191017 78 0.0 2.0 0.00 0.16 0.01 57 1018.2
20260831190016 78 0.0 1.0 0.00 0.16 0.01 56 1018.4
20260831185016 78 0.0 4.0 0.00 0.16 0.01 59 1018.5
20260831184019 78 0.0 1.0 0.00 0.16 0.01 57 1018.4
20260831183018 77 0.0 2.0 0.00 0.16 0.01 57 1018.7
20260831182057 77 0.0 1.0 0.00 0.16 0.01 57 1018.7
20260831181019 77 0.0 1.0 0.00 0.16 0.01 55 1018.6
20260831180018 77 0.0 1.0 0.00 0.16 0.01 53 1018.6
20260831175018 78 0.0 2.0 0.00 0.16 0.01 52 1018.7
20260831174018 78 0.0 2.0 0.00 0.16 0.01 53 1018.8
20260831173018 79 270 1.0 3.0 0.00 0.16 0.01 52 1019.0
20260831172017 79 0.0 2.0 0.00 0.16 0.01 54 1019.0
20260831171018 79 0.0 1.0 0.00 0.16 0.01 56 1019.1
20260831170117 80 0.0 1.0 0.00 0.16 0.01 54 1019.4
20260831165017 80 0.0 0.0 0.00 0.16 0.01 54 1019.3
20260831164023 79 0.0 1.0 0.00 0.16 0.01 56 1019.5
20260831163038 78 0.0 1.0 0.00 0.16 0.01 56 1019.6
20260831162019 78 0.0 1.0 0.00 0.16 0.01 57 1019.5
20260831161022 77 0.0 0.0 0.00 0.16 0.01 58 1019.8
20260831160018 77 45 1.0 4.0 0.00 0.16 0.01 56 1019.8
20260831155018 78 0.0 1.0 0.00 0.16 0.01 57 1019.8
20260831154021 77 0.0 1.0 0.00 0.16 0.01 61 1019.8
20260831153017 76 0.0 0.0 0.00 0.16 0.01 62 1019.8
20260831152025 76 0.0 5.0 0.00 0.16 0.01 64 1019.7
20260831151019 75 0.0 1.0 0.00 0.16 0.01 68 1019.8
20260831150017 75 0.0 1.0 0.00 0.16 0.01 70 1019.8
20260831145017 74 0.0 1.0 0.00 0.16 0.01 73 1020.0
20260831144020 73 0.0 0.0 0.00 0.16 0.01 75 1019.9
20260831143026 73 0.0 1.0 0.00 0.16 0.01 76 1019.9
20260831142018 72 0.0 3.0 0.00 0.16 0.01 77 1019.8
20260831141020 71 0.0 4.0 0.00 0.16 0.01 77 1019.9
20260831140018 71 0.0 0.0 0.00 0.16 0.01 81 1019.7
20260831135018 70 0.0 1.0 0.00 0.16 0.01 83 1019.6
20260831134037 70 0.0 0.0 0.00 0.16 0.01 85 1019.8